Flag for Canada Weather past 2 weeks in Resolute Bay, Nunavut, Canada

Now
46 °F

Overcast.


Feels Like: 39 °F
Forecast: 38 / 45 °F
Wind: 17 mph from Southeast

Location: Resolute

Current Time: Aug 4, 2015 at 3:26:18 AM

Latest Report: Aug 4, 2015 at 3:00 AM


Visibility: 15 mi

Pressure: 29.91 "Hg

Humidity: 87%

Dew point: 43 °F

Location of Resolute BayLocation

Historic Weather in Resolute Bay — Graph

°F

Resolute Bay temperature yesterday

Maximum temperature yesterday: 52 °F (at 12:00 PM)
Minimum temperature yesterday: 41 °F (at 6:00 PM)
Average temperature yesterday: 46 °F

Past Weeks' High & Low Weather Summary

 TemperatureHumidityPressure
High63 °F (Jul 22, 3:00 PM)100% (Jul 30, 4:00 AM)30.24 "Hg (Jul 30, 4:00 AM)
Low36 °F (Jul 30, 4:00 AM)39% (Jul 25, 3:00 PM)29.85 "Hg (Jul 27, 5:00 AM)
Average49 °F69%30.03 "Hg
* Reported Jul 20 2:00 AM — Aug 4 2:00 AM, Resolute Bay, Weather by CustomWeather, © 2015

Note: Actual official high and low records may vary slightly from our data, if they occured in-between our weather recording intervals... More about our weather records

Advertising

Resolute Bay weather history for previous 24 hours

 ConditionsComfort  
Time TempWeatherWind HumidityBarometerVisibility
2:00 AM
Tue, Aug 4
45 °FMore clouds than sun.16 mph93%29.92 "Hg15 mi
1:00 AM43 °FMostly cloudy.21 mph93%29.93 "Hg12 mi
12:00 AM39 °FLight rain. Fog.12 mph100%29.95 "Hg1 mi
11:00 PM
Mon, Aug 3
41 °FLight rain. Low clouds.13 mph93%29.95 "Hg10 mi
10:00 PM41 °FLight rain. Low clouds.12 mph93%29.96 "Hg15 mi
9:00 PM43 °FLight rain. Mostly cloudy.23 mph93%29.96 "Hg15 mi
8:00 PM43 °FLight rain. Overcast.16 mph87%29.97 "Hg15 mi
7:00 PM43 °FRain. Mostly cloudy.17 mph93%29.98 "Hg10 mi
6:00 PM41 °FLight rain. Overcast.15 mph87%29.99 "Hg10 mi
5:00 PM43 °FOvercast.14 mph81%30.00 "Hg15 mi
4:00 PM46 °FScattered showers. Overcast.20 mph66%30.00 "Hg15 mi
3:00 PM46 °FOvercast.15 mph71%30.01 "Hg15 mi
2:00 PM48 °FMostly cloudy.14 mph66%30.01 "Hg15 mi
1:00 PM52 °FMostly cloudy.17 mph62%30.01 "Hg15 mi
12:00 PM52 °FMostly cloudy.22 mph62%30.02 "Hg12 mi
11:00 AM48 °FOvercast.22 mph71%30.02 "Hg15 mi
10:00 AM48 °FMostly cloudy.15 mph71%30.04 "Hg15 mi
9:00 AM46 °FOvercast.17 mph71%30.06 "Hg15 mi
8:00 AM46 °FOvercast.18 mph71%30.06 "Hg15 mi
7:00 AM46 °FOvercast.20 mph71%30.05 "Hg15 mi
6:00 AM46 °FOvercast.16 mph71%30.06 "Hg15 mi
5:00 AM46 °FOvercast.20 mph71%30.06 "Hg15 mi
4:00 AM46 °FOvercast.16 mph71%30.06 "Hg15 mi
3:00 AM46 °FOvercast.16 mph76%30.06 "Hg15 mi
Weather by CustomWeather, © 2015

See weather overviewHow to use our weather pages